Regional Weather Roundup
Issued by NWS

Home | Current Version | Previous Version | Text Only | Print | Product List | Glossary Off
Versions: 1 2 3 4 5 6 7 8 9 10 11 12 13 14 15 16 17 18 19 20 21 22 23 24 25 26 27 28 29 30 31 32 33 34 35 36 37 38 39 40 41 42 43 44 45 46 47 48 49 50

000
ASUS43 KMPX 200301
RWRMN
WEATHER ROUNDUP FOR MINNESOTA
NATIONAL WEATHER SERVICE TWIN CITIES/CHANHASSEN MN
900 PM CST THU JAN 19 2017


NOTE: "FAIR" INDICATES FEW OR NO CLOUDS BELOW 12,000 FEET WITH NO
SIGNIFICANT WEATHER AND/OR OBSTRUCTIONS TO VISIBILITY. N/A MEANS
CURRENT SKY AND/OR WEATHER CONDITIONS ARE NOT AVAILABLE.

MNZ060>063-068>070-200400-
   Twin Cities Metro

CITY           SKY/WX    TMP DP  RH WIND       PRES   REMARKS
TWIN CITIES    CLOUDY    36  31  82 SE8       29.72F
ST PAUL        CLOUDY    36  33  89 E3        29.73F
CRYSTAL        CLOUDY    37  30  75 SE3       29.70F
BLAINE         CLOUDY    37  34  87 SE6       29.71F
LAKEVILLE        N/A     32  32 100 CALM      29.70F FOG
EDEN PRAIRIE   CLOUDY    37  31  78 E5        29.70F
SOUTH ST PAUL  CLOUDY    37  33  85 SE5       29.72F
LAKE ELMO      CLOUDY    36  32  87 NE3       29.73F
$$
MNZ001>005-007-008-013>017-022>024-027-028-200400-
   Northwest Minnesota

CITY           SKY/WX    TMP DP  RH WIND       PRES   REMARKS
BEMIDJI        CLOUDY    38  37  97 S10       29.61F FOG
HALLOCK        FOG       34  32  93 S14       29.54S VSB 1/2 WCI  24
ROSEAU         CLOUDY    34  28  80 S3        29.56S HAZE
WARROAD        CLOUDY    30  27  86 SE3       29.57S FOG
THIEF RVR FALL MOCLDY    36  35  96 S16       29.57S
CROOKSTON      FOG       36  34  93 S24       29.58S VSB 1/2
FOSSTON        CLEAR     34  32  93 S9        29.59S WCI  26
DETROIT LAKES  FOG       36  34  93 S14       29.62F VSB 3/4
MOORHEAD       CLOUDY    36  34  93 S17G25    29.61S FOG
PARK RAPIDS    FOG       35  32  88 S14       29.64F VSB 1/2 WCI  26
MAHNOMEN       CLOUDY    36  35  96 S13G22    29.59S FOG
$$
MNZ006-009>011-018-025>026-200400-
   North Central Minnesota

CITY           SKY/WX    TMP DP  RH WIND       PRES   REMARKS
BAUDETTE       CLOUDY    36  33  89 S9        29.58S
FLAG ISLAND    CLOUDY    25  25 100 SE8       29.56F FOG     WCI  16
INTL FALLS     CLEAR     37  34  89 VRB7      29.62F FOG
WASKISH        CLEAR     39  37  93 S9        29.59F
BIG FORK       PTCLDY    37  34  87 S5        29.65F FOG
LONGVILLE      MOCLDY    37  36  93 S5        29.66F
GRAND RAPIDS   CLEAR     36  33  89 S9        29.69
CRANE LAKE     CLEAR     36  34  93 S6        29.68F FOG
ORR            CLEAR     36  32  87 CALM      29.64F
COOK           CLEAR     37  34  87 S5        29.68F
WALKER         CLOUDY    37  36  96 S10       29.64S FOG
$$
MNZ012-019>021-037-200400-
   Northeast Minnesota

CITY           SKY/WX    TMP DP  RH WIND       PRES   REMARKS
DULUTH         CLOUDY    36  33  89 S7        29.71F
ELY            CLEAR     37  34  87 S3        29.69S
HIBBING        FOG       24  24 100 CALM      29.69S VSB 1/4
EVELETH        CLEAR     26  25  99 NE3       29.71S FOG
DULUTH HARBOR  CLOUDY    34  30  86 CALM      29.75F FOG
TWO HARBORS    PTCLDY    34  28  80 N5        29.71F HAZE    WCI  30
SILVER BAY     FOG       27  27 100 CALM      29.73S VSB 1
GRAND MARAIS     N/A     30  29  96 NW5       29.77S WCI  25
G MARAIS ARPRT CLEAR     27  25  93 S3        29.73S FOG
$$
MNZ029>031-032-039>041-046>048-054>057-064-200400-
   West Central Minnesota

CITY           SKY/WX    TMP DP  RH WIND       PRES   REMARKS
FERGUS FALLS   FOG       36  36 100 S10       29.67F VSB 1/2
WHEATON        CLOUDY    41  41 100 SE10      29.63F FOG
MORRIS         DRZL/FOG  36  34  93 SE13      29.62S VSB 1/4
ALEXANDRIA     FOG       34  34 100 SE9       29.65F VSB 1/2 WCI  27
ELBOW LAKE     SNOW      34  34 100 SE12      29.63F VSB 1/2 WCI  25
WADENA         FOG       34  34 100 SE7       29.64F VSB 1/4 WCI  28
GLENWOOD       FOG       34  34 100 SE12      29.66F VSB 1/4 WCI  25
APPLETON       FOG       36  34  93 SE13      29.63F VSB 3/4
BENSON         CLOUDY    37  34  87 S13         N/A
ORTONVILLE     CLOUDY    36  34  93 SE7       29.61F FOG
MADISON        CLOUDY    37  37 100 SE13      29.63S FOG
WILLMAR        CLOUDY    36  36 100 SE7       29.69F FOG
$$
MNZ033>034-036-042>043-049>051-058-059-200400-
   Central Minnesota

CITY           SKY/WX    TMP DP  RH WIND       PRES   REMARKS
ST CLOUD       CLOUDY    36  33  89 SE3       29.70F
SAUK CENTRE    CLOUDY    33  33 100 SE9       29.68S FOG     WCI  25
PAYNESVILLE    CLOUDY    35  35 100 SE3       29.69F
AITKIN         PTCLDY    39  30  70 SE7       29.67F
PINE RIVER     MOCLDY    36  36 100 S5        29.71S FOG
BRAINERD       CLEAR     36  33  89 SE7       29.68F FOG
STAPLES        CLOUDY    34  34 100 S9        29.66F FOG     WCI  26
LONG PRAIRIE   CLOUDY    32  32 100 E6        29.68F FOG     WCI  26
LITTLE FALLS     N/A    N/A N/A N/A SE3         N/A
LITCHFIELD     CLOUDY    36  34  93 CALM      29.69F
BUFFALO        CLOUDY    36  32  86 SE5       29.71F
MAPLE LAKE     CLOUDY    37  34  89 SE3       29.70F
HUTCHINSON     CLOUDY    36  34  93 CALM      29.69F
$$
MNZ037-044-045-052-053-200400-
   East Central Minnesota

CITY           SKY/WX    TMP DP  RH WIND       PRES   REMARKS
PRINCETON      CLOUDY    37  34  87 E5        29.71F
MORA           CLOUDY    34  30  86 CALM      29.74F
CAMBRIDGE      CLOUDY    37  30  75 E3        29.71S
RUSH CITY      CLOUDY    36  32  87 SE3       29.73F
MOOSE LAKE     CLOUDY    36  32  87 CALM      29.70F
HINCKLEY       CLOUDY    36  32  87 CALM      29.73F
CLOQUET        CLOUDY    34  30  86 CALM      29.71F
MCGREGOR       CLOUDY    36  32  87 SE7       29.70F
$$
MNZ071>073-080-081-089-090-097-098-200400-
   Southwest Minnesota

CITY           SKY/WX    TMP DP  RH WIND       PRES   REMARKS
MONTEVIDEO     FOG       34  34 100 S9        29.67S VSB 1   WCI  26
GRANITE FALLS  CLOUDY    36  36  98 E7        29.67F FOG
CANBY          CLOUDY    36  36  98 CALM      29.63S FOG
MARSHALL       CLOUDY    36  35  96 SE13      29.64F FOG
REDWOOD FALLS  CLOUDY    35  33  92 E5        29.67F FOG     WCI  31
OLIVIA         CLOUDY    34  32  93 E5        29.67F FOG     WCI  30
PIPESTONE      FOG       37  36  93 SE9       29.60F VSB 1/2
WINDOM         CLOUDY    36  36 100 SE8       29.65F FOG
WORTHINGTON    LGT RAIN  34  34 100 SE9       29.65F VSB 1/2 WCI  27
JACKSON        FOG       32  32 100 SE6       29.66F VSB 1/4 WCI  26
TRACY          CLOUDY    37  37 100 S8        29.64F FOG
SLAYTON        FOG       34  34 100 SE9       29.65F VSB 1/2 WCI  26
$$
MNZ065>067-074>077-082>085-091>093-200400-
   South Central Minnesota

CITY           SKY/WX    TMP DP  RH WIND       PRES   REMARKS
MANKATO        MOCLDY    35  33  92 S5        29.68F FOG     WCI  31
NEW ULM        CLOUDY    36  34  93 SE6       29.68F FOG
ST JAMES       CLOUDY    34  34 100 E6        29.68F FOG     WCI  29
FAIRMONT       FOG       34  33  96 SE8       29.67F VSB 1   WCI  27
GLENCOE        CLOUDY    36  36 100 SE9       29.68F FOG
FARIBAULT        N/A     36  34  93 CALM      29.70F FOG
OWATONNA       DRIZZLE   37  36  93 SE3       29.69F
WASECA         CLOUDY    34  32  93 SE6       29.70F FOG     WCI  29
ALBERT LEA     FOG       36  36 100 SE5       29.68F VSB 1
$$
MNZ078>079-086>088-094>096-200400-
   Southeast Minnesota

CITY           SKY/WX    TMP DP  RH WIND       PRES   REMARKS
ROCHESTER      LGT RAIN  33  33 100 E8        29.70F FOG     WCI  26
RED WING       CLOUDY    37  32  81 SE8       29.72F
STANTON        CLOUDY    37  32  82 CALM      29.70F
DODGE CENTER   MIX PCPN  34  34 100 SE3       29.69F
WINONA         LGT RAIN  34  34 100 CALM      29.76S
AUSTIN         LGT SNOW  34  32  93 SE3       29.69F
PRESTON        LGT RAIN  33  32  96 E6        29.71F WCI  28
$$
ABBREVIATIONS USED IN REMARKS
   TC - TEMPERATURES IN CELSIUS
  WCI - WIND CHILL INDEX
   HX - HEAT INDEX
  VSB - VISIBILITY
$$




USA.gov is the U.S. government's official web portal to all federal, state and local government web resources and services.